Retour au catalogue

CZ-6A DEB

ActifSSO
NORAD 56661·DEBRIS·🇨🇳 China

Lancé Nov 11, 2022 depuis Taiyuan Satellite Launch Center

Loading…

Prochains Passages (prochaines 24 heures)

TLE

FraisSource: Space-Track

Époque: Sep 14, 2026, 21:07 UTC

1 56661U 22151AGM 26257.88002843  .00000321  00000-0  11023-3 0  9996
2 56661  98.6719 311.3440 0101709  17.8232 342.6482 14.40116866183270

Suivez CZ-6A DEB en temps réel avec AllMySat

Download on the App Store